Regional Weather Roundup
Issued by NWS New Orleans/Baton Rouge, LA

Home | Current Version | Previous Version | Text Only | Print | Product List | Glossary On
Versions: 1 2 3 4 5 6 7 8 9 10 11 12 13 14 15 16 17 18 19 20 21 22 23 24 25 26 27 28 29 30 31 32 33 34 35 36 37 38 39 40 41 42 43 44 45 46 47 48 49 50
785
ASUS44 KLIX 301211
RWRLIX
NEW ORLEANS REGIONAL WEATHER ROUNDUP
NATIONAL WEATHER SERVICE NEW ORLEANS LA
700 AM CDT SAT APR 30 2016

NOTE: "FAIR" INDICATES FEW OR NO CLOUDS BELOW 12,000 FEET WITH NO
      SIGNIFICANT WEATHER AND/OR OBSTRUCTIONS TO VISIBILITY.
      SKY/WX - SKY CONDITION AND SIGNIFICANT WEATHER.
      TMP - AIR TEMPERATURE.     DP    - DEWPOINT TEMPERATURE.
      RH  - RELATIVE HUMIDITY.   PRES  - PRESSURE.
      HI  - HEAT INDEX.          WCI   - WIND CHILL INDEX.

*  THESE STATIONS ARE NOT NWS OR FAA STATIONS AND ARE NOT UNDER
   NWS QUALITY CONTROL.

LAZ038-040-048-061>063-065>067-069-301300-
SOUTHEAST LOUISIANA

CITY           SKY/WX    TMP DP  RH WIND       PRES   REMARKS
N.O. AUDUBON     N/A     76  72  89 MISG        N/A
6HR MIN TEMP:  75; 6HR MAX TEMP:  76;

N.O. INTL ARPT CLOUDY    77  72  84 SE15      29.77S
6HR MIN TEMP:  75; 6HR MAX TEMP:  77;

N.O. LAKEFRONT CLOUDY    73  73 100 SE17G23   29.78F
6HR MIN TEMP:  72; 6HR MAX TEMP:  73;

N.O. DOWNTOWN* CLOUDY    76  73  91 SE9       29.78F
6HR MIN TEMP:  76; 6HR MAX TEMP:  77;

RESERVE*         N/A     77  72  84 SE12      29.76R
6HR MIN TEMP:  76; 6HR MAX TEMP:  77;

SLIDELL        CLOUDY    76  74  93 SE10      29.79F
6HR MIN TEMP:  76; 6HR MAX TEMP:  76;

BATON ROUGE    CLOUDY    75  69  81 SE5       29.77R
6HR MIN TEMP:  75; 6HR MAX TEMP:  76;

BOOTHVILLE     CLOUDY    74  73  97 SE10      29.82R
6HR MIN TEMP:  72; 6HR MAX TEMP:  75;

BELLE CHASSE   CLOUDY    76  73  91 SE14      29.78F
6HR MIN TEMP:  75; 6HR MAX TEMP:  77;

BOGALUSA*        N/A     74  70  86 SE8       29.80F
6HR MIN TEMP:  74; 6HR MAX TEMP:  76;

GALLIANO*      CLOUDY    77  73  87 SE10G17   29.77F
6HR MIN TEMP:  76; 6HR MAX TEMP:  77;

NEW ROADS*     CLOUDY    74  71  88 SE8       29.77S
6HR MIN TEMP:  74; 6HR MAX TEMP:  75;

GONZALES*      CLOUDY    76  73  91 SE5       29.75R
6HR MIN TEMP:  74; 6HR MAX TEMP:  76;

HAMMOND*       CLOUDY    73  70  88 S9        29.78R
HOUMA*         PTCLDY    75  73  94 SE15G22   29.77S
PORT FOURCHON* PTSUNNY   77  75  94 SE17      29.79R FOG

$$

MSZ070-080>082-301300-
SOUTHERN MISSISSIPPI

CITY           SKY/WX    TMP DP  RH WIND       PRES   REMARKS
MCCOMB         CLOUDY    73  71  93 S7        29.82R
6HR MIN TEMP:  72; 6HR MAX TEMP:  73;

GULFPORT       CLOUDY    76  73  91 SE14      29.84R
6HR MIN TEMP:  75; 6HR MAX TEMP:  76;

BILOXI         CLOUDY    76  76 100 SE9       29.84R
6HR MIN TEMP:  75; 6HR MAX TEMP:  76;

PASCAGOULA     CLOUDY    75  73  93 SE8       29.84R
6HR MIN TEMP:  74; 6HR MAX TEMP:  75;

STENNIS ARPT*  MOCLDY    75  68  78 SE10      29.83

$$

COASTAL OBSERVATIONS
LAKE AND NEARSHORE STATIONS

STATION/POSITION TIME  TEMP    WIND        PRES    WAVE
                       AIR SEA DIR/SP/G            HT/PER
                 (UTC) (F)     (DEG/KT/KT) (MB)    (FT/S)
PASCAGOULA       1100   76     130/ 12/ 17 1009.7
WAVELAND YACHT   1100   76 76  150/ 15/ 19 1008.8
GRAND ISLE       1100   76 78  140/  9/ 14 1008.5
SOUTHWEST PASS   1100          130/ 14/ 18   N/A
NEW CANAL        1100   76 75  140/  4/  7 1008.2
SHELL BEACH      1100   75 77  140/ 13/ 18 1009.1

OFFSHORE STATIONS

STATION/POSITION TIME  TEMP    WIND        PRES    WAVE
                       AIR SEA DIR/SP/G            HT/PER
                 (UTC) (F)     (DEG/KT/KT) (MB)    (FT/S)
64 S DAUPHIN ISL 1100   75 74  140/ 12/ 14 1010.3

$$





USA.gov is the U.S. government's official web portal to all federal, state and local government web resources and services.